• In Deutschland
  • Länderverzeichnis
  • Für 7 Tage
  • Wassertemperatur
  • Satellitenkarten
  • Wetterkarte
  • Widgets
  • user-avatar
    Anmelden

    Stündliche Wetter Shusha

    Heute, 23 März, Donnerstag

    Zeit Temperatur Niederschläge Wind Luftdruck Luftfeuchtigkeit
    00:00 0°C° 0 mm 1 m/S 657 mmHg 81%
    01:00 0°C° 0 mm 1 m/S 657 mmHg 81%
    02:00 -1°C° 0 mm 1 m/S 657 mmHg 81%
    03:00 -1°C° 0 mm 1 m/S 657 mmHg 74%
    04:00 -1°C° 0 mm 1 m/S 657 mmHg 74%
    05:00 -1°C° 0 mm 1 m/S 657 mmHg 74%
    06:00 -1°C° 0 mm 1 m/S 657 mmHg 75%
    07:00 +1°C° 0 mm 1 m/S 658 mmHg 69%
    08:00 +3°C° 0 mm 1 m/S 658 mmHg 63%
    09:00 +4°C° 0 mm 1 m/S 659 mmHg 57%
    10:00 +4°C° 0 mm 2 m/S 659 mmHg 56%
    11:00 +5°C° 0 mm 2 m/S 659 mmHg 54%
    12:00 +6°C° 0 mm 2 m/S 659 mmHg 52%
    13:00 +6°C° 0 mm 2 m/S 659 mmHg 54%
    14:00 +6°C° 0 mm 2 m/S 659 mmHg 57%
    15:00 +6°C° 0 mm 2 m/S 658 mmHg 59%
    16:00 +5°C° 0,1 mm 2 m/S 658 mmHg 66%
    17:00 +4°C° 0,1 mm 2 m/S 658 mmHg 73%
    18:00 +4°C° 0,1 mm 1 m/S 659 mmHg 81%
    19:00 +3°C° 0,2 mm 1 m/S 659 mmHg 84%
    20:00 +2°C° 0,2 mm 1 m/S 659 mmHg 88%
    21:00 +1°C° 0,2 mm 1 m/S 659 mmHg 91%
    22:00 +1°C° 0,1 mm 1 m/S 660 mmHg 92%
    23:00 -1°C° 0,1 mm 0 m/S 660 mmHg 93%

    Morgen, 24 März, Freitag

    Zeit Temperatur Niederschläge Wind Luftdruck Luftfeuchtigkeit
    00:00 -1°C° 0,1 mm 0 m/S 660 mmHg 94%
    01:00 -1°C° 0,1 mm 0 m/S 660 mmHg 95%
    02:00 -2°C° 0,1 mm 0 m/S 660 mmHg 95%
    03:00 -2°C° 0,1 mm 0 m/S 660 mmHg 95%
    04:00 -2°C° 0,1 mm 0 m/S 660 mmHg 96%
    05:00 -3°C° 0,1 mm 0 m/S 660 mmHg 96%
    06:00 -3°C° 0,1 mm 0 m/S 660 mmHg 96%
    07:00 0°C° 0,1 mm 1 m/S 661 mmHg 87%
    08:00 +3°C° 0,1 mm 1 m/S 662 mmHg 78%
    09:00 +5°C° 0,1 mm 1 m/S 663 mmHg 69%
    10:00 +6°C° 0,1 mm 1 m/S 663 mmHg 65%
    11:00 +5°C° 0,1 mm 2 m/S 663 mmHg 62%
    12:00 +6°C° 0,1 mm 2 m/S 663 mmHg 58%
    13:00 +6°C° 0,1 mm 2 m/S 662 mmHg 59%
    14:00 +6°C° 0,1 mm 2 m/S 662 mmHg 60%
    15:00 +7°C° 0,1 mm 2 m/S 662 mmHg 61%
    16:00 +5°C° 0 mm 2 m/S 662 mmHg 67%
    17:00 +4°C° 0 mm 2 m/S 662 mmHg 74%
    18:00 +3°C° 0 mm 2 m/S 661 mmHg 80%
    19:00 +3°C° 0 mm 1 m/S 662 mmHg 84%
    20:00 +2°C° 0 mm 1 m/S 662 mmHg 88%
    21:00 +1°C° 0 mm 1 m/S 662 mmHg 91%
    22:00 0°C° 0 mm 1 m/S 662 mmHg 92%
    23:00 0°C° 0 mm 1 m/S 661 mmHg 92%

    übermorgen, 25 März, Samstag

    Zeit Temperatur Niederschläge Wind Luftdruck Luftfeuchtigkeit
    00:00 -1°C° 0 mm 1 m/S 661 mmHg 92%
    01:00 -1°C° 0 mm 1 m/S 661 mmHg 92%
    02:00 -2°C° 0 mm 0 m/S 660 mmHg 92%
    03:00 -3°C° 0 mm 0 m/S 660 mmHg 92%
    04:00 -3°C° 0 mm 0 m/S 660 mmHg 92%
    05:00 -3°C° 0 mm 0 m/S 660 mmHg 93%
    06:00 -3°C° 0 mm 0 m/S 659 mmHg 93%
    07:00 -1°C° 0 mm 0 m/S 660 mmHg 82%
    08:00 +3°C° 0 mm 1 m/S 661 mmHg 71%
    09:00 +6°C° 0 mm 1 m/S 661 mmHg 60%
    10:00 +7°C° 0 mm 1 m/S 661 mmHg 57%
    11:00 +8°C° 0 mm 1 m/S 661 mmHg 53%
    12:00 +9°C° 0 mm 2 m/S 661 mmHg 50%
    13:00 +9°C° 0 mm 2 m/S 660 mmHg 50%
    14:00 +9°C° 0 mm 2 m/S 659 mmHg 51%
    15:00 +9°C° 0 mm 2 m/S 659 mmHg 52%
    16:00 +7°C° 0 mm 2 m/S 658 mmHg 60%
    17:00 +6°C° 0 mm 1 m/S 658 mmHg 68%
    18:00 +5°C° 0 mm 1 m/S 657 mmHg 76%
    19:00 +4°C° 0 mm 1 m/S 657 mmHg 79%
    20:00 +3°C° 0 mm 1 m/S 657 mmHg 82%
    21:00 +2°C° 0 mm 1 m/S 657 mmHg 84%
    22:00 +2°C° 0 mm 1 m/S 657 mmHg 84%
    23:00 +2°C° 0 mm 1 m/S 657 mmHg 83%

    26 März, Sonntag

    Zeit Temperatur Niederschläge Wind Luftdruck Luftfeuchtigkeit
    00:00 +2°C° 0 mm 1 m/S 657 mmHg 82%
    01:00 +1°C° 0 mm 1 m/S 657 mmHg 82%
    02:00 +1°C° 0 mm 1 m/S 656 mmHg 82%
    03:00 +1°C° 0 mm 1 m/S 656 mmHg 82%
    04:00 +1°C° 0 mm 1 m/S 656 mmHg 80%
    05:00 +1°C° 0 mm 1 m/S 656 mmHg 79%
    06:00 +1°C° 0 mm 1 m/S 656 mmHg 77%
    07:00 +3°C° 0 mm 1 m/S 657 mmHg 68%
    08:00 +6°C° 0 mm 1 m/S 658 mmHg 59%
    09:00 +9°C° 0 mm 1 m/S 659 mmHg 50%
    10:00 +10°C° 0 mm 1 m/S 659 mmHg 47%
    11:00 +11°C° 0 mm 1 m/S 659 mmHg 44%
    12:00 +12°C° 0 mm 2 m/S 659 mmHg 41%
    13:00 +12°C° 0 mm 2 m/S 659 mmHg 42%
    14:00 +13°C° 0 mm 2 m/S 658 mmHg 43%
    15:00 +13°C° 0 mm 2 m/S 658 mmHg 44%
    16:00 +11°C° 0 mm 1 m/S 658 mmHg 52%
    17:00 +9°C° 0 mm 1 m/S 658 mmHg 60%
    18:00 +7°C° 0 mm 1 m/S 657 mmHg 68%
    19:00 +6°C° 0 mm 1 m/S 658 mmHg 70%
    20:00 +5°C° 0 mm 1 m/S 658 mmHg 72%
    21:00 +5°C° 0 mm 1 m/S 658 mmHg 74%
    22:00 +4°C° 0 mm 1 m/S 658 mmHg 72%
    23:00 +3°C° 0 mm 2 m/S 658 mmHg 69%

    27 März, Montag

    Zeit Temperatur Niederschläge Wind Luftdruck Luftfeuchtigkeit
    00:00 +3°C° 0 mm 2 m/S 658 mmHg 66%
    01:00 +3°C° 0 mm 2 m/S 658 mmHg 66%
    02:00 +2°C° 0 mm 2 m/S 658 mmHg 65%
    03:00 +2°C° 0 mm 2 m/S 658 mmHg 64%
    04:00 +2°C° 0 mm 2 m/S 658 mmHg 63%
    05:00 +2°C° 0 mm 2 m/S 658 mmHg 63%
    06:00 +1°C° 0 mm 2 m/S 658 mmHg 62%
    07:00 +5°C° 0 mm 1 m/S 659 mmHg 54%
    08:00 +8°C° 0 mm 1 m/S 660 mmHg 46%
    09:00 +11°C° 0 mm 1 m/S 660 mmHg 38%
    10:00 +12°C° 0 mm 1 m/S 660 mmHg 36%
    11:00 +13°C° 0 mm 2 m/S 660 mmHg 34%
    12:00 +14°C° 0 mm 2 m/S 660 mmHg 32%
    13:00 +14°C° 0 mm 2 m/S 660 mmHg 33%
    14:00 +14°C° 0 mm 2 m/S 659 mmHg 33%
    15:00 +15°C° 0 mm 2 m/S 659 mmHg 34%
    16:00 +12°C° 0 mm 2 m/S 658 mmHg 43%
    17:00 +10°C° 0 mm 1 m/S 658 mmHg 51%
    18:00 +8°C° 0 mm 1 m/S 657 mmHg 60%
    19:00 +7°C° 0 mm 1 m/S 657 mmHg 62%
    20:00 +6°C° 0 mm 1 m/S 658 mmHg 64%
    21:00 +5°C° 0 mm 1 m/S 658 mmHg 66%
    22:00 +5°C° 0 mm 1 m/S 658 mmHg 65%
    23:00 +4°C° 0 mm 2 m/S 657 mmHg 63%

    28 März, Dienstag

    Zeit Temperatur Niederschläge Wind Luftdruck Luftfeuchtigkeit
    00:00 +4°C° 0 mm 2 m/S 657 mmHg 62%
    01:00 +3°C° 0 mm 2 m/S 657 mmHg 63%
    02:00 +3°C° 0 mm 2 m/S 657 mmHg 64%
    03:00 +3°C° 0 mm 2 m/S 657 mmHg 65%
    04:00 +3°C° 0 mm 2 m/S 657 mmHg 64%
    05:00 +2°C° 0 mm 2 m/S 657 mmHg 63%
    06:00 +2°C° 0 mm 2 m/S 657 mmHg 62%
    07:00 +6°C° 0 mm 1 m/S 658 mmHg 55%
    08:00 +9°C° 0 mm 1 m/S 658 mmHg 47%
    09:00 +12°C° 0 mm 1 m/S 659 mmHg 39%
    10:00 +13°C° 0 mm 1 m/S 659 mmHg 37%
    11:00 +14°C° 0 mm 2 m/S 659 mmHg 34%
    12:00 +15°C° 0 mm 2 m/S 659 mmHg 32%
    13:00 +16°C° 0 mm 2 m/S 658 mmHg 32%
    14:00 +16°C° 0 mm 2 m/S 658 mmHg 32%
    15:00 +16°C° 0 mm 2 m/S 657 mmHg 33%
    16:00 +14°C° 0 mm 2 m/S 657 mmHg 40%
    17:00 +12°C° 0 mm 1 m/S 656 mmHg 48%
    18:00 +10°C° 0 mm 1 m/S 656 mmHg 56%
    19:00 +9°C° 0 mm 1 m/S 656 mmHg 57%
    20:00 +8°C° 0 mm 1 m/S 656 mmHg 59%
    21:00 +7°C° 0 mm 1 m/S 656 mmHg 60%
    22:00 +6°C° 0 mm 2 m/S 656 mmHg 59%
    23:00 +6°C° 0 mm 2 m/S 656 mmHg 58%
    Mehr zeigen